You are here:

home

Questo sito é stato creato esclusivamente per valorizzare il lavoro svolto dall' intero
155° Gruppo E.T.S. del' Aeronautica Militare e non ha nessun fine commerciale ne di lucro. 
Pertanto, l' utilizzo delle foto é consentito solo per uso PRIVATO.

 

 
In alto

LIMS - Piacenza, San Damiano

[source: ADDS]
METAR
LIMS 291755Z 30011KT 9999 SCT025 BKN050 21/21 Q1008 RMK OVC VIS MIN 9999 WIND THR30 29013KT BLU =
TAF
TAF LIMS 291400Z 2915/2924 21007KT 9999 SCT030 SCT070 BECMG 2922/2924 FEW020CB BKN050 =
In alto
WEB MASTER
Paolo "paolopaso" Pasotti
______________________________________
Last Update: 25/02/2011
_____________________________________________________________________________________________________________
© 2010 / 2011 - Tutti i diritti riservati
 
 
In alto